International Skating Union - Official Site

Essent ISU World Cup Heerenveen
November 12-14, 2010

Draw | Lap Times | Index | World Cup

Referee: Erik  ØSMUNDSET  (NOR)
Starter: Jannie  SMEGEN  (NED)
StartTime: EndTime: Air Temp: Ice Temp: Humidity:
15:15 17:30
Result 5000m Men Division A
Rankings as of Nov 14 2010 5:34PM
Rank: No.: Name: Nation: Time: Behind: Points:
1 81 Bob  de JONG NED NED 6:17.31200m - 19.74 - (19.7)
600m - 49.47 - (29.7)
1000m - 1:19.86 - (30.3)
1400m - 1:50.03 - (30.1)
1800m - 2:19.87 - (29.8)
2200m - 2:49.63 - (29.7)
2600m - 3:19.42 - (29.7)
3000m - 3:49.25 - (29.8)
3400m - 4:19.14 - (29.9)
3800m - 4:49.03 - (29.8)
4200m - 5:18.57 - (29.5)
4600m - 5:48.03 - (29.4)
5000m - 6:17.31 - (29.2)
100
2 121 Ivan  SKOBREV RUS RUS 6:18.96200m - 18.87 - (18.8)
600m - 48.22 - (29.3)
1000m - 1:17.80 - (29.5)
1400m - 1:47.80 - (30.0)
1800m - 2:17.62 - (29.8)
2200m - 2:47.72 - (30.1)
2600m - 3:17.72 - (30.0)
3000m - 3:47.83 - (30.1)
3400m - 4:18.03 - (30.2)
3800m - 4:48.20 - (30.1)
4200m - 5:18.22 - (30.0)
4600m - 5:48.39 - (30.1)
5000m - 6:18.96 - (30.5)
1.65 80
3 88 Wouter  OLDE HEUVEL NED NED 6:20.93200m - 18.99 - (19.0)
600m - 48.45 - (29.4)
1000m - 1:18.05 - (29.6)
1400m - 1:47.80 - (29.7)
1800m - 2:17.62 - (29.8)
2200m - 2:47.44 - (29.8)
2600m - 3:17.65 - (30.2)
3000m - 3:48.02 - (30.3)
3400m - 4:18.55 - (30.5)
3800m - 4:49.27 - (30.7)
4200m - 5:19.88 - (30.6)
4600m - 5:50.39 - (30.5)
5000m - 6:20.93 - (30.5)
3.62 70
4 130 Jonathan  KUCK USA USA 6:22.32200m - 19.68 - (19.6)
600m - 49.43 - (29.7)
1000m - 1:19.67 - (30.2)
1400m - 1:50.19 - (30.5)
1800m - 2:20.29 - (30.1)
2200m - 2:50.59 - (30.3)
2600m - 3:21.23 - (30.6)
3000m - 3:51.64 - (30.4)
3400m - 4:21.94 - (30.3)
3800m - 4:52.10 - (30.1)
4200m - 5:22.14 - (30.0)
4600m - 5:52.20 - (30.0)
5000m - 6:22.32 - (30.1)
5.01 60
5 94 Bob  de VRIES NED NED 6:22.44200m - 19.44 - (19.4)
600m - 48.74 - (29.3)
1000m - 1:18.87 - (30.1)
1400m - 1:49.45 - (30.5)
1800m - 2:19.63 - (30.1)
2200m - 2:49.77 - (30.1)
2600m - 3:19.96 - (30.2)
3000m - 3:49.91 - (29.9)
3400m - 4:19.77 - (29.8)
3800m - 4:49.80 - (30.0)
4200m - 5:20.28 - (30.4)
4600m - 5:51.21 - (30.9)
5000m - 6:22.44 - (31.2)
5.13 50
6 30 Alexis  CONTIN FRA FRA 6:22.67200m - 19.12 - (19.1)
600m - 48.69 - (29.5)
1000m - 1:19.44 - (30.7)
1400m - 1:50.16 - (30.7)
1800m - 2:20.66 - (30.5)
2200m - 2:51.04 - (30.3)
2600m - 3:21.48 - (30.4)
3000m - 3:51.75 - (30.2)
3400m - 4:21.65 - (29.9)
3800m - 4:51.84 - (30.1)
4200m - 5:21.92 - (30.0)
4600m - 5:52.17 - (30.2)
5000m - 6:22.67 - (30.5)
5.36 45
7 71 Seung-Hoon  LEE KOR KOR 6:23.40200m - 18.81 - (18.8)
600m - 48.30 - (29.4)
1000m - 1:17.84 - (29.5)
1400m - 1:47.36 - (29.5)
1800m - 2:17.37 - (30.0)
2200m - 2:47.41 - (30.0)
2600m - 3:17.80 - (30.4)
3000m - 3:48.43 - (30.6)
3400m - 4:19.13 - (30.7)
3800m - 4:50.07 - (30.9)
4200m - 5:21.10 - (31.0)
4600m - 5:52.33 - (31.2)
5000m - 6:23.40 - (31.0)
6.09 40
8 96 Håvard  BØKKO NOR NOR 6:23.73200m - 18.56 - (18.5)
600m - 48.62 - (30.0)
1000m - 1:19.14 - (30.5)
1400m - 1:49.48 - (30.3)
1800m - 2:19.79 - (30.3)
2200m - 2:49.84 - (30.0)
2600m - 3:19.90 - (30.0)
3000m - 3:50.46 - (30.5)
3400m - 4:20.98 - (30.5)
3800m - 4:51.52 - (30.5)
4200m - 5:22.29 - (30.7)
4600m - 5:52.86 - (30.5)
5000m - 6:23.73 - (30.8)
6.42 36
9 76 Jorrit  BERGSMA NED NED 6:24.20200m - 19.93 - (19.9)
600m - 50.19 - (30.2)
1000m - 1:20.31 - (30.1)
1400m - 1:50.87 - (30.5)
1800m - 2:21.32 - (30.4)
2200m - 2:51.59 - (30.2)
2600m - 3:21.70 - (30.1)
3000m - 3:51.77 - (30.0)
3400m - 4:21.88 - (30.1)
3800m - 4:52.36 - (30.4)
4200m - 5:22.97 - (30.6)
4600m - 5:53.59 - (30.6)
5000m - 6:24.20 - (30.6)
6.89 32
10 60 Dmitry  BABENKO KAZ KAZ 6:25.60200m - 18.61 - (18.6)
600m - 47.61 - (29.0)
1000m - 1:17.93 - (30.3)
1400m - 1:48.15 - (30.2)
1800m - 2:18.47 - (30.3)
2200m - 2:48.76 - (30.2)
2600m - 3:19.05 - (30.2)
3000m - 3:49.48 - (30.4)
3400m - 4:20.16 - (30.6)
3800m - 4:51.12 - (30.9)
4200m - 5:22.22 - (31.0)
4600m - 5:53.64 - (31.4)
5000m - 6:25.60 - (31.9)
8.29 28
11 99 Øystein  GRØDUM NOR NOR 6:26.65200m - 19.88 - (19.8)
600m - 49.63 - (29.7)
1000m - 1:20.32 - (30.6)
1400m - 1:50.53 - (30.2)
1800m - 2:21.16 - (30.6)
2200m - 2:51.48 - (30.3)
2600m - 3:21.97 - (30.4)
3000m - 3:52.46 - (30.4)
3400m - 4:23.27 - (30.8)
3800m - 4:53.77 - (30.4)
4200m - 5:24.59 - (30.8)
4600m - 5:55.59 - (31.0)
5000m - 6:26.65 - (31.0)
9.34 24
12 47 Enrico  FABRIS ITA ITA 6:27.38200m - 18.69 - (18.6)
600m - 47.47 - (28.7)
1000m - 1:17.51 - (30.0)
1400m - 1:48.13 - (30.6)
1800m - 2:18.46 - (30.3)
2200m - 2:48.87 - (30.4)
2600m - 3:19.47 - (30.6)
3000m - 3:50.13 - (30.6)
3400m - 4:21.04 - (30.9)
3800m - 4:52.22 - (31.1)
4200m - 5:23.67 - (31.4)
4600m - 5:55.34 - (31.6)
5000m - 6:27.38 - (32.0)
10.07 21
13 97 Henrik  CHRISTIANSEN NOR NOR 6:30.04200m - 19.25 - (19.2)
600m - 48.85 - (29.6)
1000m - 1:19.06 - (30.2)
1400m - 1:49.58 - (30.5)
1800m - 2:20.10 - (30.5)
2200m - 2:50.75 - (30.6)
2600m - 3:21.45 - (30.6)
3000m - 3:52.57 - (31.1)
3400m - 4:23.42 - (30.8)
3800m - 4:54.75 - (31.3)
4200m - 5:26.53 - (31.7)
4600m - 5:58.27 - (31.7)
5000m - 6:30.04 - (31.7)
12.73 18
14 34 Patrick  BECKERT GER GER 6:30.12200m - 19.53 - (19.5)
600m - 49.27 - (29.7)
1000m - 1:19.64 - (30.3)
1400m - 1:50.44 - (30.8)
1800m - 2:21.13 - (30.6)
2200m - 2:52.00 - (30.8)
2600m - 3:23.07 - (31.0)
3000m - 3:54.39 - (31.3)
3400m - 4:25.73 - (31.3)
3800m - 4:57.29 - (31.5)
4200m - 5:28.62 - (31.3)
4600m - 5:59.63 - (31.0)
5000m - 6:30.12 - (30.4)
12.81 16
15 104 Shane  DOBBIN NZL NZL 6:30.92200m - 19.28 - (19.2)
600m - 48.91 - (29.6)
1000m - 1:19.24 - (30.3)
1400m - 1:49.74 - (30.5)
1800m - 2:20.27 - (30.5)
2200m - 2:50.80 - (30.5)
2600m - 3:21.61 - (30.8)
3000m - 3:52.51 - (30.9)
3400m - 4:23.66 - (31.1)
3800m - 4:54.92 - (31.2)
4200m - 5:26.43 - (31.5)
4600m - 5:58.28 - (31.8)
5000m - 6:30.92 - (32.6)
13.61 14
16 110 Jan  SZYMANSKI POL POL 6:31.45200m - 18.55 - (18.5)
600m - 48.22 - (29.6)
1000m - 1:18.91 - (30.7)
1400m - 1:49.71 - (30.8)
1800m - 2:20.42 - (30.7)
2200m - 2:51.14 - (30.7)
2600m - 3:22.20 - (31.0)
3000m - 3:53.43 - (31.2)
3400m - 4:24.73 - (31.3)
3800m - 4:56.03 - (31.2)
4200m - 5:27.69 - (31.6)
4600m - 5:59.67 - (31.9)
5000m - 6:31.45 - (31.7)
14.14 12
17 78 Robert  BOVENHUIS NED NED 6:36.87200m - 19.55 - (19.5)
600m - 49.20 - (29.6)
1000m - 1:19.26 - (30.0)
1400m - 1:50.23 - (30.9)
1800m - 2:21.13 - (30.9)
2200m - 2:52.19 - (31.0)
2600m - 3:23.38 - (31.2)
3000m - 3:54.87 - (31.4)
3400m - 4:26.23 - (31.3)
3800m - 4:58.26 - (32.0)
4200m - 5:30.66 - (32.4)
4600m - 6:03.58 - (32.9)
5000m - 6:36.87 - (33.2)
19.56 10
18 128 Shani  DAVIS USA USA 6:37.76200m - 19.10 - (19.1)
600m - 49.21 - (30.1)
1000m - 1:20.42 - (31.2)
1400m - 1:51.44 - (31.0)
1800m - 2:22.22 - (30.7)
2200m - 2:52.68 - (30.4)
2600m - 3:23.56 - (30.8)
3000m - 3:54.93 - (31.3)
3400m - 4:26.83 - (31.9)
3800m - 4:59.15 - (32.3)
4200m - 5:31.79 - (32.6)
4600m - 6:04.77 - (32.9)
5000m - 6:37.76 - (33.0)
20.45 8
19 10 Lucas  MAKOWSKY CAN CAN 6:41.30200m - 19.26 - (19.2)
600m - 50.52 - (31.2)
1000m - 1:22.22 - (31.7)
1400m - 1:53.43 - (31.2)
1800m - 2:24.68 - (31.2)
2200m - 2:56.21 - (31.5)
2600m - 3:28.06 - (31.8)
3000m - 3:59.98 - (31.9)
3400m - 4:32.35 - (32.3)
3800m - 5:04.92 - (32.5)
4200m - 5:37.47 - (32.5)
4600m - 6:09.58 - (32.1)
5000m - 6:41.30 - (31.7)
23.99 6
20 103 Tore  SOLLI NOR NOR 6:41.89200m - 19.56 - (19.5)
600m - 50.24 - (30.6)
1000m - 1:21.45 - (31.2)
1400m - 1:52.41 - (30.9)
1800m - 2:23.41 - (31.0)
2200m - 2:54.60 - (31.1)
2600m - 3:26.32 - (31.7)
3000m - 3:58.03 - (31.7)
3400m - 4:30.47 - (32.4)
3800m - 5:03.09 - (32.6)
4200m - 5:36.19 - (33.1)
4600m - 6:09.04 - (32.8)
5000m - 6:41.89 - (32.8)
24.58 5
21 14 Justin  WARSYLEWICZ CAN CAN 6:42.52200m - 18.82 - (18.8)
600m - 48.27 - (29.4)
1000m - 1:18.81 - (30.5)
1400m - 1:49.87 - (31.0)
1800m - 2:20.87 - (31.0)
2200m - 2:52.19 - (31.3)
2600m - 3:23.57 - (31.3)
3000m - 3:55.42 - (31.8)
3400m - 4:27.82 - (32.4)
3800m - 5:00.99 - (33.1)
4200m - 5:34.51 - (33.5)
4600m - 6:08.28 - (33.7)
5000m - 6:42.52 - (34.2)
25.21 4
22 59 Norimasa  ZAIKE JPN JPN 6:43.32200m - 20.64 - (20.6)
600m - 52.47 - (31.8)
1000m - 1:23.21 - (30.7)
1400m - 1:53.65 - (30.4)
1800m - 2:24.35 - (30.7)
2200m - 2:55.37 - (31.0)
2600m - 3:26.46 - (31.0)
3000m - 3:58.34 - (31.8)
3400m - 4:30.78 - (32.4)
3800m - 5:03.29 - (32.5)
4200m - 5:35.93 - (32.6)
4600m - 6:09.96 - (34.0)
5000m - 6:43.32 - (33.3)
26.01 3
23 101 Håvard  LORENTZEN NOR NOR 6:45.20200m - 19.41 - (19.4)
600m - 50.26 - (30.8)
1000m - 1:21.41 - (31.1)
1400m - 1:52.93 - (31.5)
1800m - 2:24.53 - (31.6)
2200m - 2:56.43 - (31.9)
2600m - 3:28.34 - (31.9)
3000m - 4:00.31 - (31.9)
3400m - 4:32.44 - (32.1)
3800m - 5:04.98 - (32.5)
4200m - 5:37.89 - (32.9)
4600m - 6:11.30 - (33.4)
5000m - 6:45.20 - (33.9)
27.89 2
24 44 Marco  WEBER GER GER DQ200m - 19.28 - (19.2)
600m - 49.72 - (30.4)
1000m - 1:20.30 - (30.5)
1400m - 1:51.90 - (31.6)
1800m - 2:23.12 - (31.2)
2200m - 2:54.42 - (31.3)
2600m - 3:25.90 - (31.4)
3000m - 3:57.61 - (31.7)
3400m - 4:29.34 - (31.7)
3800m - 5:01.56 - (32.2)
4200m - 5:33.98 - (32.4)
4600m - 6:06.61 - (32.6)
5000m - 6:39.15 - (32.5)
0